Погода в Северном Колчиме

Россия / Пермский край     60°07′16″N   57°46′47″E
темп.,
°C
ветер,
м/с
пор.,
м/с
влажн.,
%
обл.,
%
осадки,
мм/ч
давл.,
гПа
погр.,
м
30 июня, чт
чт3023:00+7с116998 0.0 100910
02:00+6с117121 0.0 100916
05:00+4с258375 0.0 1009124
08:00+8с3466100 0.0 1009498
11:00+12с224925 0.0 10091459
14:00+12всв356052 0.3 10101283
17:00+13всв565279 0.7 10121649
20:00+11св345997 0.0 10141046
1 июля, пт
пт123:00+8ссв266896 0.0 1015225
02:00+6св238892 0.0 101654
05:00+8с138092 0.0 1017111
08:00+10ссз136999 0.0 1017328
11:00+16ссз234875 0.0 10171634
14:00+17сз2447100 0.0 10161842
17:00+17зсз2451100 0.0 10151211
20:00+16зюз256696 0.0 1015192
2 июля, сб
сб223:00+10зюз118841 0.0 101510
02:00+8ю119358 0.0 101510
05:00+7ююв21935 0.0 101421
08:00+13ююз23685 0.0 1013322
11:00+18з23515 0.0 10121054
14:00+21з344321 0.0 10111918
17:00+18сз345758 0.0 1011904
20:00+15ссз2580100 0.1 1011286
3 июля, вс
вс323:00+13с388681 0.1 1011427
02:00+9с279740 0.0 1011163
05:00+10с378791 0.0 1010450
08:00+12ссв357784 0.0 1010559
11:00+13ссв247897 0.2 1010627
14:00+14св237499 0.7 1011722
17:00+14ссв247092 0.9 1011668
20:00+14ссв266648 0.1 1011467
4 июля, пн
пн423:00+8в118497 0.1 101315
02:00+7всв118741 0.0 101311
05:00+5св119383 0.0 101410
08:00+11с2364100 0.0 1014423
11:00+14с3548100 0.0 10131364
14:00+18с354251 0.0 10122077
17:00+19с363958 0.0 10122241
20:00+16сз266069 0.0 1012279